OAL900 SANU-SGAS

Flight info

Callsign OAL900
Flight time N/A
Altitude 37000
Route KIBUN DCT JUA UW24 CBA UL531 ERE UW14 BITUS UP526 SAMGU
Aircraft B738/M-SDE2E3FGHIRWXY/LB1

Departure

Time N/A
Airport Domingo Faustino Sarmiento Airport (SANU)

Arrival

Time 2026-04-24 20:34
Airport Silvio Pettirossi International Airport (SGAS)
Time Latitude Longitude Altitude Speed Heading
2026-04-24 18:54 -31.52397 -67.74391 18705 ft 425 kts 88°
2026-04-24 18:55 -31.52133 -67.67415 19782 ft 432 kts 88°
2026-04-24 18:55 -31.51999 -67.63886 20312 ft 435 kts 88°
2026-04-24 18:55 -31.51862 -67.60329 20824 ft 439 kts 88°
2026-04-24 18:56 -31.51723 -67.56742 21320 ft 443 kts 88°
2026-04-24 18:56 -31.51582 -67.53124 21853 ft 445 kts 88°
2026-04-24 18:56 -31.51440 -67.49485 22352 ft 449 kts 87°
2026-04-24 18:56 -31.51294 -67.45811 22764 ft 454 kts 87°
2026-04-24 18:57 -31.51146 -67.42097 23205 ft 458 kts 87°
2026-04-24 18:57 -31.50996 -67.38352 23659 ft 461 kts 87°
2026-04-24 18:57 -31.50843 -67.34583 24050 ft 465 kts 87°
2026-04-24 18:57 -31.50688 -67.30786 24416 ft 468 kts 87°
2026-04-24 18:58 -31.50531 -67.26958 24779 ft 472 kts 87°
2026-04-24 18:58 -31.50372 -67.23105 25142 ft 475 kts 87°
2026-04-24 18:58 -31.50210 -67.19218 25504 ft 479 kts 87°
2026-04-24 18:58 -31.50047 -67.15311 25849 ft 482 kts 88°
2026-04-24 18:59 -31.49880 -67.11373 26187 ft 486 kts 88°
2026-04-24 18:59 -31.49712 -67.07409 26525 ft 489 kts 88°
2026-04-24 18:59 -31.49541 -67.03420 26860 ft 492 kts 88°
2026-04-24 18:59 -31.49368 -66.99401 27179 ft 495 kts 88°
2026-04-24 19:00 -31.49192 -66.95362 27500 ft 498 kts 88°
2026-04-24 19:00 -31.49015 -66.91293 27801 ft 502 kts 88°
2026-04-24 19:00 -31.48831 -66.87198 28114 ft 505 kts 87°
2026-04-24 19:00 -31.48621 -66.83085 28424 ft 508 kts 87°
2026-04-24 19:01 -31.48389 -66.78945 28729 ft 511 kts 86°
2026-04-24 19:01 -31.48147 -66.74784 29029 ft 514 kts 86°
2026-04-24 19:01 -31.47903 -66.70595 29317 ft 516 kts 86°
2026-04-24 19:01 -31.47658 -66.66384 29605 ft 519 kts 86°
2026-04-24 19:02 -31.47496 -66.63589 29787 ft 521 kts 86°
2026-04-24 19:02 -31.47169 -66.57909 30178 ft 523 kts 86°
2026-04-24 19:02 -31.46926 -66.53700 30445 ft 525 kts 86°
2026-04-24 19:02 -31.46679 -66.49428 30689 ft 527 kts 86°
2026-04-24 19:03 -31.46430 -66.45134 30930 ft 529 kts 86°
2026-04-24 19:03 -31.46179 -66.40832 31164 ft 531 kts 86°
2026-04-24 19:03 -31.45924 -66.36505 31399 ft 533 kts 86°
2026-04-24 19:03 -31.45668 -66.32167 31653 ft 535 kts 86°
2026-04-24 19:04 -31.45409 -66.27814 31904 ft 536 kts 85°
2026-04-24 19:04 -31.45147 -66.23448 32103 ft 539 kts 85°
2026-04-24 19:04 -31.44883 -66.19065 32320 ft 541 kts 85°
2026-04-24 19:04 -31.44616 -66.14658 32560 ft 542 kts 85°
2026-04-24 19:05 -31.44347 -66.10244 32782 ft 544 kts 85°
2026-04-24 19:05 -31.44076 -66.05818 32983 ft 546 kts 85°
2026-04-24 19:05 -31.43802 -66.01368 33190 ft 548 kts 85°
2026-04-24 19:05 -31.43526 -65.96912 33427 ft 550 kts 84°
2026-04-24 19:06 -31.43247 -65.92441 33658 ft 551 kts 84°
2026-04-24 19:06 -31.42967 -65.87958 33861 ft 553 kts 84°
2026-04-24 19:06 -31.42683 -65.83464 34062 ft 555 kts 84°
2026-04-24 19:06 -31.42398 -65.78955 34253 ft 556 kts 84°
2026-04-24 19:07 -31.42110 -65.74433 34459 ft 557 kts 84°
2026-04-24 19:07 -31.41820 -65.69905 34656 ft 558 kts 84°
2026-04-24 19:07 -31.41627 -65.66909 34776 ft 558 kts 84°
2026-04-24 19:07 -31.41234 -65.60834 35010 ft 561 kts 84°
2026-04-24 19:08 -31.40937 -65.56276 35183 ft 562 kts 84°
2026-04-24 19:08 -31.40638 -65.51708 35373 ft 563 kts 84°
2026-04-24 19:08 -31.40337 -65.47136 35552 ft 564 kts 84°
2026-04-24 19:08 -31.40034 -65.42548 35731 ft 566 kts 84°
2026-04-24 19:09 -31.39728 -65.37956 35935 ft 567 kts 84°
2026-04-24 19:09 -31.39422 -65.33355 36160 ft 566 kts 84°
2026-04-24 19:09 -31.39112 -65.28755 36354 ft 567 kts 83°
2026-04-24 19:09 -31.38801 -65.24158 36507 ft 568 kts 83°
2026-04-24 19:10 -31.38490 -65.19609 36695 ft 568 kts 83°
2026-04-24 19:10 -31.38172 -65.14999 36887 ft 569 kts 83°
2026-04-24 19:10 -31.37852 -65.10385 37039 ft 570 kts 83°
2026-04-24 19:11 -31.37206 -65.01123 37054 ft 571 kts 83°
2026-04-24 19:11 -31.36556 -64.91880 37063 ft 569 kts 83°
2026-04-24 19:12 -31.35901 -64.82659 37062 ft 567 kts 83°
2026-04-24 19:12 -31.35241 -64.73475 37051 ft 566 kts 83°
2026-04-24 19:13 -31.34688 -64.65848 37047 ft 566 kts 83°
2026-04-24 19:13 -31.33902 -64.55114 37010 ft 566 kts 83°
2026-04-24 19:14 -31.33224 -64.45944 37014 ft 566 kts 83°
2026-04-24 19:14 -31.32537 -64.36757 36994 ft 568 kts 83°
2026-04-24 19:15 -31.31802 -64.27550 36994 ft 568 kts 78°
2026-04-24 19:15 -31.30962 -64.23072 36988 ft 562 kts 67°
2026-04-24 19:15 -31.29630 -64.18807 37001 ft 555 kts 58°
2026-04-24 19:16 -31.23539 -64.07654 36999 ft 545 kts 42°
2026-04-24 19:16 -31.18970 -64.00529 37002 ft 550 kts 43°
2026-04-24 19:17 -31.14423 -63.93302 37006 ft 554 kts 43°
2026-04-24 19:17 -31.09909 -63.86042 37003 ft 550 kts 43°
2026-04-24 19:18 -31.05449 -63.78873 37010 ft 543 kts 43°
2026-04-24 19:18 -31.00993 -63.71761 37016 ft 543 kts 42°
2026-04-24 19:19 -30.96532 -63.64654 37020 ft 543 kts 42°
2026-04-24 19:19 -30.92069 -63.57549 37024 ft 544 kts 42°
2026-04-24 19:20 -30.87652 -63.50378 37031 ft 546 kts 43°
2026-04-24 19:20 -30.83276 -63.43128 37033 ft 547 kts 43°
2026-04-24 19:21 -30.78875 -63.35887 37032 ft 548 kts 43°
2026-04-24 19:21 -30.74465 -63.28735 37032 ft 547 kts 42°
2026-04-24 19:22 -30.69973 -63.21599 37034 ft 547 kts 42°
2026-04-24 19:22 -30.65469 -63.14458 37030 ft 547 kts 42°
2026-04-24 19:23 -30.60979 -63.07325 37031 ft 547 kts 42°
2026-04-24 19:23 -30.56494 -63.00202 37027 ft 546 kts 42°
2026-04-24 19:24 -30.52016 -62.93104 37026 ft 544 kts 42°
2026-04-24 19:24 -30.47546 -62.86033 37027 ft 543 kts 42°
2026-04-24 19:25 -30.43085 -62.78990 37028 ft 541 kts 42°
2026-04-24 19:25 -30.38636 -62.71978 37027 ft 539 kts 42°
2026-04-24 19:26 -30.34194 -62.65000 37025 ft 537 kts 41°
2026-04-24 19:26 -30.29743 -62.58065 37028 ft 536 kts 41°
2026-04-24 19:27 -30.26048 -62.52325 37027 ft 535 kts 41°
2026-04-24 19:27 -30.21606 -62.45427 37031 ft 534 kts 41°
2026-04-24 19:28 -30.17173 -62.38551 37032 ft 533 kts 41°
2026-04-24 19:28 -30.12739 -62.31683 37035 ft 533 kts 41°
2026-04-24 19:29 -30.06087 -62.21402 37033 ft 532 kts 41°
2026-04-24 19:30 -30.01649 -62.14558 37035 ft 532 kts 41°
2026-04-24 19:30 -29.97209 -62.07721 37026 ft 532 kts 41°
2026-04-24 19:31 -29.92766 -62.00889 37026 ft 532 kts 41°
2026-04-24 19:31 -29.88396 -61.93994 37023 ft 540 kts 48°
2026-04-24 19:31 -29.86577 -61.90165 37024 ft 551 kts 57°
2026-04-24 19:32 -29.85217 -61.86001 37041 ft 556 kts 64°
2026-04-24 19:32 -29.82908 -61.77578 37029 ft 554 kts 65°
2026-04-24 19:33 -29.80613 -61.69135 37024 ft 550 kts 65°
2026-04-24 19:33 -29.78251 -61.60780 37041 ft 548 kts 64°
2026-04-24 19:34 -29.75851 -61.52469 37039 ft 547 kts 64°
2026-04-24 19:34 -29.73446 -61.44165 37038 ft 548 kts 64°
2026-04-24 19:35 -29.71035 -61.35839 37040 ft 549 kts 64°
2026-04-24 19:35 -29.68616 -61.27492 37039 ft 551 kts 64°
2026-04-24 19:36 -29.66182 -61.19113 37042 ft 553 kts 64°
2026-04-24 19:36 -29.63735 -61.10715 37039 ft 555 kts 64°
2026-04-24 19:37 -29.61276 -61.02296 37038 ft 556 kts 64°
2026-04-24 19:37 -29.58809 -60.93868 37042 ft 557 kts 64°
2026-04-24 19:38 -29.56333 -60.85434 37038 ft 557 kts 64°
2026-04-24 19:38 -29.53841 -60.77026 37036 ft 555 kts 64°
2026-04-24 19:39 -29.51318 -60.68658 37034 ft 554 kts 63°
2026-04-24 19:39 -29.48815 -60.60378 37039 ft 552 kts 63°
2026-04-24 19:40 -29.46303 -60.52067 37032 ft 550 kts 63°
2026-04-24 19:40 -29.43796 -60.43781 37035 ft 549 kts 63°
2026-04-24 19:41 -29.41296 -60.35519 37034 ft 548 kts 64°
2026-04-24 19:41 -29.38818 -60.27267 37036 ft 547 kts 64°
2026-04-24 19:42 -29.36342 -60.19028 37041 ft 546 kts 64°
2026-04-24 19:42 -29.33857 -60.10792 37047 ft 546 kts 64°
2026-04-24 19:43 -29.31365 -60.02559 37042 ft 547 kts 64°
2026-04-24 19:43 -29.28865 -59.94324 37039 ft 547 kts 64°
2026-04-24 19:44 -29.26361 -59.86090 37043 ft 548 kts 64°
2026-04-24 19:44 -29.23848 -59.77846 37042 ft 549 kts 64°
2026-04-24 19:45 -29.21322 -59.69595 37035 ft 548 kts 62°
2026-04-24 19:45 -29.18080 -59.61840 37047 ft 537 kts 52°
2026-04-24 19:46 -29.14482 -59.54422 37039 ft 537 kts 52°
2026-04-24 19:46 -29.10867 -59.46943 37034 ft 538 kts 52°
2026-04-24 19:47 -29.07291 -59.39418 37033 ft 538 kts 53°
2026-04-24 19:47 -29.03730 -59.31890 37032 ft 539 kts 53°
2026-04-24 19:48 -29.00161 -59.24367 37033 ft 538 kts 53°
2026-04-24 19:48 -28.94803 -59.13113 37044 ft 537 kts 53°
2026-04-24 19:49 -28.87648 -58.98135 37030 ft 536 kts 53°
2026-04-24 19:50 -28.80564 -58.83173 37031 ft 535 kts 53°
2026-04-24 19:51 -28.75291 -58.71970 37027 ft 533 kts 53°
2026-04-24 19:52 -28.70017 -58.60824 37028 ft 532 kts 53°
2026-04-24 19:52 -28.66505 -58.53419 37028 ft 531 kts 53°
2026-04-24 19:53 -28.62987 -58.46020 37036 ft 532 kts 53°
2026-04-24 19:54 -28.57623 -58.35025 37019 ft 532 kts 53°
2026-04-24 19:54 -28.54020 -58.27690 37036 ft 531 kts 53°
2026-04-24 19:55 -28.51005 -58.21543 37024 ft 531 kts 53°
2026-04-24 19:55 -28.46828 -58.13029 37032 ft 530 kts 53°
2026-04-24 19:56 -28.43230 -58.05710 37025 ft 530 kts 53°
2026-04-24 19:56 -28.39625 -57.98389 37027 ft 530 kts 53°
2026-04-24 19:57 -28.36017 -57.91076 37038 ft 531 kts 53°
2026-04-24 19:57 -28.32394 -57.83745 37014 ft 532 kts 53°
2026-04-24 19:58 -28.28772 -57.76428 37025 ft 531 kts 53°
2026-04-24 19:58 -28.25143 -57.69128 37009 ft 530 kts 53°
2026-04-24 19:59 -28.20890 -57.62589 37037 ft 496 kts 27°
2026-04-24 19:59 -28.18060 -57.60520 37006 ft 476 kts 14°
2026-04-24 19:59 -28.15041 -57.59157 37023 ft 460 kts
2026-04-24 19:59 -28.11957 -57.58536 37015 ft 441 kts 351°
2026-04-24 20:00 -28.08900 -57.58433 37019 ft 441 kts 350°
2026-04-24 20:00 -28.02740 -57.58255 37014 ft 444 kts 350°
2026-04-24 20:01 -27.96590 -57.58031 37016 ft 446 kts 351°
2026-04-24 20:01 -27.90388 -57.57776 37011 ft 446 kts 351°
2026-04-24 20:02 -27.85197 -57.57556 37010 ft 445 kts 351°
2026-04-24 20:02 -27.78014 -57.57254 37007 ft 444 kts 351°
2026-04-24 20:03 -27.71849 -57.56997 37006 ft 442 kts 351°
2026-04-24 20:03 -27.65711 -57.56743 36999 ft 441 kts 352°
2026-04-24 20:04 -27.59593 -57.56490 36996 ft 439 kts 352°
2026-04-24 20:04 -27.53490 -57.56237 36994 ft 439 kts 352°
2026-04-24 20:05 -27.47388 -57.55985 37000 ft 438 kts 352°
2026-04-24 20:05 -27.41293 -57.55740 37006 ft 438 kts 352°
2026-04-24 20:06 -27.35203 -57.55565 37004 ft 438 kts 352°
2026-04-24 20:06 -27.32189 -57.55490 36715 ft 443 kts 352°
2026-04-24 20:06 -27.29087 -57.55414 36215 ft 445 kts 352°
2026-04-24 20:06 -27.25998 -57.55330 35578 ft 444 kts 352°
2026-04-24 20:07 -27.23915 -57.55272 35146 ft 444 kts 352°
2026-04-24 20:07 -27.19814 -57.55157 34392 ft 443 kts 353°
2026-04-24 20:07 -27.16784 -57.55065 34190 ft 431 kts 353°
2026-04-24 20:07 -27.13795 -57.54977 33559 ft 430 kts 352°
2026-04-24 20:08 -27.10789 -57.54897 32761 ft 434 kts 352°
2026-04-24 20:08 -27.07764 -57.54818 32042 ft 436 kts 352°
2026-04-24 20:08 -27.04722 -57.54737 31310 ft 439 kts 352°
2026-04-24 20:08 -27.01661 -57.54653 30578 ft 441 kts 352°
2026-04-24 20:09 -26.98607 -57.54566 30059 ft 437 kts 352°
2026-04-24 20:09 -26.95553 -57.54480 29436 ft 442 kts 352°
2026-04-24 20:09 -26.92442 -57.54398 28866 ft 452 kts 353°
2026-04-24 20:09 -26.89292 -57.54310 28274 ft 450 kts 353°
2026-04-24 20:10 -26.86179 -57.54218 27717 ft 446 kts 353°
2026-04-24 20:10 -26.83095 -57.54143 27204 ft 439 kts 353°
2026-04-24 20:10 -26.80059 -57.54100 26655 ft 435 kts 352°
2026-04-24 20:10 -26.77048 -57.54071 26125 ft 430 kts 352°
2026-04-24 20:11 -26.74066 -57.54044 25600 ft 426 kts 352°
2026-04-24 20:11 -26.71110 -57.54015 25060 ft 423 kts 352°
2026-04-24 20:11 -26.68175 -57.53984 24509 ft 421 kts 352°
2026-04-24 20:11 -26.65255 -57.53952 23975 ft 418 kts 353°
2026-04-24 20:12 -26.62355 -57.53918 23411 ft 416 kts 353°
2026-04-24 20:12 -26.59508 -57.53884 22808 ft 413 kts 353°
2026-04-24 20:12 -26.57575 -57.53861 22434 ft 410 kts 353°
2026-04-24 20:12 -26.53787 -57.53815 21707 ft 404 kts 354°
2026-04-24 20:13 -26.51021 -57.53782 21182 ft 401 kts 354°
2026-04-24 20:13 -26.48254 -57.53749 20801 ft 394 kts 354°
2026-04-24 20:13 -26.45535 -57.53720 20492 ft 387 kts 354°
2026-04-24 20:13 -26.42851 -57.53693 20200 ft 388 kts 354°
2026-04-24 20:14 -26.40130 -57.53669 19904 ft 394 kts 354°
2026-04-24 20:14 -26.37380 -57.53643 19590 ft 395 kts 355°
2026-04-24 20:14 -26.35530 -57.53623 19382 ft 392 kts 355°
2026-04-24 20:14 -26.32817 -57.53593 19073 ft 389 kts 355°
2026-04-24 20:15 -26.30114 -57.53563 18764 ft 387 kts 355°
2026-04-24 20:15 -26.27433 -57.53534 18461 ft 385 kts 355°
2026-04-24 20:15 -26.24761 -57.53506 18139 ft 383 kts 356°
2026-04-24 20:15 -26.22106 -57.53478 17812 ft 381 kts 356°
2026-04-24 20:16 -26.19495 -57.53451 17503 ft 379 kts 356°
2026-04-24 20:16 -26.16863 -57.53423 17202 ft 377 kts 356°
2026-04-24 20:16 -26.14241 -57.53396 16903 ft 375 kts 356°
2026-04-24 20:16 -26.11630 -57.53369 16611 ft 374 kts 356°
2026-04-24 20:17 -26.09029 -57.53342 16319 ft 373 kts 356°
2026-04-24 20:17 -26.03857 -57.52827 15742 ft 374 kts
2026-04-24 20:17 -26.01288 -57.52373 15448 ft 373 kts
2026-04-24 20:18 -25.99591 -57.52062 15258 ft 373 kts
2026-04-24 20:18 -25.96177 -57.51446 14874 ft 371 kts
2026-04-24 20:18 -25.93635 -57.51003 14586 ft 369 kts
2026-04-24 20:18 -25.91105 -57.50574 14296 ft 367 kts
2026-04-24 20:19 -25.88587 -57.50155 14000 ft 365 kts
2026-04-24 20:19 -25.86071 -57.49742 13710 ft 363 kts
2026-04-24 20:19 -25.83581 -57.49336 13382 ft 361 kts
2026-04-24 20:19 -25.81107 -57.48934 13102 ft 358 kts
2026-04-24 20:20 -25.78651 -57.48536 12819 ft 356 kts
2026-04-24 20:20 -25.76208 -57.48140 12533 ft 354 kts
2026-04-24 20:20 -25.73813 -57.47752 12251 ft 352 kts
2026-04-24 20:20 -25.71398 -57.47361 11974 ft 349 kts
2026-04-24 20:21 -25.68996 -57.46972 11708 ft 348 kts
2026-04-24 20:21 -25.66611 -57.46586 11437 ft 345 kts
2026-04-24 20:21 -25.64267 -57.46206 11166 ft 337 kts
2026-04-24 20:21 -25.61978 -57.45835 10904 ft 329 kts
2026-04-24 20:22 -25.59738 -57.45472 10645 ft 322 kts
2026-04-24 20:22 -25.57547 -57.45118 10403 ft 315 kts
2026-04-24 20:22 -25.55396 -57.44770 10157 ft 309 kts
2026-04-24 20:22 -25.53285 -57.44430 9929 ft 303 kts
2026-04-24 20:23 -25.51249 -57.44100 9924 ft 289 kts
2026-04-24 20:23 -25.49304 -57.43785 9804 ft 279 kts
2026-04-24 20:23 -25.47346 -57.43472 9303 ft 284 kts
2026-04-24 20:23 -25.45399 -57.43159 8991 ft 277 kts
2026-04-24 20:24 -25.43526 -57.42856 8755 ft 267 kts
2026-04-24 20:24 -25.41704 -57.42563 8543 ft 263 kts
2026-04-24 20:24 -25.39881 -57.42271 8345 ft 266 kts
2026-04-24 20:24 -25.38033 -57.41975 8136 ft 270 kts
2026-04-24 20:25 -25.36188 -57.41678 7931 ft 273 kts
2026-04-24 20:25 -25.34320 -57.41281 7703 ft 273 kts
2026-04-24 20:25 -25.32456 -57.40814 7483 ft 269 kts 10°
2026-04-24 20:25 -25.30642 -57.40359 7274 ft 266 kts
2026-04-24 20:26 -25.28870 -57.39922 7063 ft 263 kts
2026-04-24 20:26 -25.27063 -57.39481 6832 ft 263 kts
2026-04-24 20:26 -25.25275 -57.39046 6591 ft 263 kts
2026-04-24 20:26 -25.23484 -57.38613 6344 ft 263 kts 10°
2026-04-24 20:27 -25.21695 -57.38180 6085 ft 264 kts 10°
2026-04-24 20:27 -25.19926 -57.37751 5826 ft 264 kts 10°
2026-04-24 20:27 -25.18113 -57.37313 5570 ft 263 kts 10°
2026-04-24 20:27 -25.16351 -57.36886 5324 ft 262 kts 10°
2026-04-24 20:28 -25.14569 -57.36456 5076 ft 261 kts 10°
2026-04-24 20:28 -25.12815 -57.36032 4817 ft 254 kts 10°
2026-04-24 20:28 -25.11108 -57.35796 4537 ft 243 kts 350°
2026-04-24 20:28 -25.09654 -57.36578 4285 ft 232 kts 312°
2026-04-24 20:29 -25.09108 -57.37562 4118 ft 226 kts 288°
2026-04-24 20:29 -25.08674 -57.39763 3726 ft 214 kts 282°
2026-04-24 20:29 -25.08379 -57.41355 3347 ft 210 kts 282°
2026-04-24 20:29 -25.08102 -57.42885 3195 ft 197 kts 280°
2026-04-24 20:30 -25.08054 -57.44319 3111 ft 178 kts 263°
2026-04-24 20:30 -25.08398 -57.45574 3021 ft 169 kts 244°
2026-04-24 20:30 -25.09055 -57.46597 2908 ft 157 kts 229°
2026-04-24 20:30 -25.09846 -57.47360 2713 ft 147 kts 218°
2026-04-24 20:31 -25.10685 -57.47969 2544 ft 143 kts 216°
2026-04-24 20:31 -25.11553 -57.48521 2366 ft 145 kts 205°
2026-04-24 20:31 -25.12491 -57.48911 2182 ft 144 kts 200°
2026-04-24 20:31 -25.13440 -57.49269 2003 ft 144 kts 199°
2026-04-24 20:32 -25.14405 -57.49559 1816 ft 143 kts 195°
2026-04-24 20:32 -25.15366 -57.49806 1642 ft 144 kts 194°
2026-04-24 20:32 -25.16337 -57.50045 1441 ft 142 kts 194°
2026-04-24 20:32 -25.17293 -57.50279 1259 ft 140 kts 194°
2026-04-24 20:33 -25.18250 -57.50513 1094 ft 142 kts 195°
2026-04-24 20:33 -25.19205 -57.50747 929 ft 140 kts 194°
2026-04-24 20:33 -25.20160 -57.50980 769 ft 141 kts 196°
2026-04-24 20:33 -25.21120 -57.51212 560 ft 138 kts 195°
2026-04-24 20:34 -25.22043 -57.51445 382 ft 136 kts 195°
2026-04-24 20:34 -25.22970 -57.51674 264 ft 132 kts 195°
2026-04-24 20:34 -25.23693 -57.51847 271 ft 76 kts 193°
2026-04-24 20:34 -25.24059 -57.51945 280 ft 45 kts 193°
2026-04-24 20:35 -25.24220 -57.51956 283 ft 13 kts 165°
2026-04-24 20:35 -25.24271 -57.51880 282 ft 13 kts 105°
2026-04-24 20:35 -25.24289 -57.51785 284 ft 12 kts 101°
2026-04-24 20:35 -25.24305 -57.51696 283 ft 12 kts 96°
2026-04-24 20:36 -25.24295 -57.51611 281 ft 8 kts 74°
2026-04-24 20:36 -25.24286 -57.51553 280 ft 8 kts 92°
2026-04-24 20:36 -25.24287 -57.51543 280 ft 0 kts 95°
2026-04-24 20:36 -25.24288 -57.51535 280 ft 0 kts 95°